SPACEWAY 1 (28644 NORAD) Tracking and Keplerian Element Data

This shows tracking and keplerian element data for the satellite.

Feedback or suggestion? Click here.




ElementValue
Catalog28644
NameSPACEWAY 1
Epoch Orbit5745
Epoch Day365.62404667
Epoch Year2020
RAAN92.1946
Inclination1.5927
Eccentricity0.0001781
Argument of Perigee67.5427
Mean Anonmoly65.8212
Mean Motion0.98489067
Decay Rate2.9E-07
L11 28644U 05015A 20365.62404667 .00000029 00000-0 00000+0 0 9996
L22 28644 1.5927 92.1946 0001781 67.5427 65.8212 0.98489067 57455



Live tracking and technical data element details for SPACEWAY 1 (NORAD 28644). SPACEWAY 1 can be tracked NOW for your location showing map with azimuth and elevation plus other details from your city location.







IsCatalogInMostPopularTable: catalog: 28644, numindb: 519
Update: records affected: 1



GetName: 28644 SPACEWAY 1

Hit Count: updated at: Sat, 17 May 2025 10:10:11 GMT